Location: ????? ????????
(42.0234°N, 44.2434°E)
Time: 04:36:37
(UTC+00:00)

Daily predictions for brighter satellites

Satellite Brightness Start Highest point End
(mag) Time Altitude Azimuth Time Altitude Azimuth Time Altitude Azimuth
FALCON 9 DEB 3.4 00:03:19 10° WNW 00:06:32 41° SW 00:09:43 10° SSE
IDEFIX/ARIANE 42P 2.6 00:01:45 10° N 00:06:59 72° WNW 00:11:29 14° SSW
COSMOS 2406 4.4 00:02:34 10° S 00:07:45 38° ESE 00:12:58 10° NE
Cosmos 2315 Rocket 4.3 00:13:17 10° N 00:19:29 71° E 00:25:39 10° SSE
DELTA 2 R/B (1) 3.6 00:18:42 10° W 00:24:11 65° S 00:29:41 10° ESE
Cosmos 1656 3.9 00:19:16 10° NNW 00:25:01 78° ENE 00:30:40 10° SSE
IRS-1D 4.5 00:22:05 10° N 00:26:36 32° WNW 00:30:46 11° SW
CZ-2D R/B 3.8 00:22:27 10° NNE 00:26:37 67° ESE 00:30:38 10° S
USA 281 3.3 00:22:07 10° S 00:28:36 62° WSW 00:35:07 10° NNW
IRS-1C 4.2 00:24:50 10° N 00:30:09 67° WNW 00:35:25 10° SSW
deb Kosmos-1763 3.9 00:27:05 12° SSW 00:30:21 80° WNW 00:33:53 10° NNE
SL-08 R/B 3.3 00:27:31 10° SSE 00:32:10 86° WSW 00:36:56 10° NNW
S3M 4.3 00:27:35 10° NNW 00:33:28 48° W 00:39:24 10° SSW
X-37B 0.5 00:31:46 10° WNW 00:34:54 63° SSW 00:38:03 10° ESE
Cosmos 1697 Rocket 3.8 00:30:38 10° NNW 00:36:07 50° ENE 00:41:36 10° SE
Delta 2 Rocket 4.3 00:33:22 12° SW 00:36:33 28° S 00:39:45 10° ESE
CZ-2C R/B 3.1 00:31:44 10° NNE 00:36:36 55° E 00:41:16 10° S
Cosmos 1812 3.0 00:33:03 10° NNW 00:36:45 46° W 00:40:25 10° SSW
MSX 4.1 00:31:27 10° N 00:37:05 57° WNW 00:42:40 10° SSW
NOSS 3-4 (A) 4.4 00:34:05 10° S 00:39:23 39° ESE 00:44:59 10° NE
NOSS 3-4 (C) 4.5 00:34:12 10° S 00:39:31 39° ESE 00:45:06 10° NE
CZ-2C R/B 3.9 00:36:24 10° NNE 00:40:07 43° E 00:43:43 10° S
Cosmos 1782 4.4 00:40:02 10° NW 00:42:54 19° W 00:45:47 10° SW
Cosmos 2084 Rocket 3.2 00:39:13 10° SW 00:43:08 89° SE 00:47:08 10° NE
Cosmos 1271 Rocket 3.8 00:42:21 10° NW 00:45:29 25° W 00:48:36 10° SSW
GPS 2-04 Rocket1 3.7 00:42:06 10° WSW 00:45:30 27° S 00:48:46 10° SE
FALCON 9 DEB 2.8 00:43:31 10° NW 00:46:40 84° SW 00:49:46 10° SE
NOSS 3-2 (A) 4.2 00:39:21 10° NW 00:47:04 88° SW 00:55:44 10° SSE
CZ-4C R/B 4.4 00:45:03 10° SSW 00:47:43 21° W 00:50:23 10° NW
Cosmos 773 Rocket 4.1 00:44:05 10° SSW 00:49:22 76° WNW 00:54:41 10° NNE
ATLAS 2AS CENTAUR R/B 4.5 00:43:38 10° S 00:50:26 33° ESE 00:57:13 10° NE
Cosmos 1500 Rocket 3.6 00:48:24 10° SSW 00:52:42 67° W 00:57:02 10° N
ATLAS 5 CENTAUR R/B 3.9 00:51:23 10° NW 00:53:12 12° NNW 00:55:08 10° N
SeaSat 1 3.3 00:51:28 10° NNE 00:56:01 39° NW 01:00:34 10° WSW
Meteor 1-10 Rocket 4.4 00:50:43 10° NNW 00:56:28 59° W 01:02:04 10° S
